Showing default

FIREFLY-1, 62701

Orbit data source: Space-Track

FIREFLY-1, 62701 is a payload satellite owned by Pixxel (IN) in SSO that was launched on Tue, 14 Jan 2025 UTC via an FALCON 9 launch vehicle from the Air Force Western Test Range (AFWTR). Payload-class satellites include a variety of spacecraft equipped with specific instruments for various scientific and technological missions. These include communications satellites like Starlink; space stations such as the ISS; scientific satellites like the Hubble; Earth observation satellites from companies like Planet Labs, Umbra, and HawkEye 360; GPS; miniature CubeSats for education and research; and military/defense satellites.

Loading next visibility...
Identifier
62701, 2025-009CW
Orbit
SSO
Country
Flag of ININ / IND
Related business
Manufacturer
Pixxel
Mission
Operational Commercial Imaging
Bus & Motor
FIREFLY, Unknown motor
Mass
60 kg wet, 60 kg dry
Launch date (UTC)
2025-01-14 (1 year ago)
Launch vehicle
FALCON 9
Launch site
Air Force Western Test Range (AFWTR)
Object type
Payload
Rocket body
Debris
Shape & HBR
Box + 2 Pan, 0.9 m
Radar Cross Section
0.338 m², Medium (>0.1 m² and < 1m²)

Expand to show TLE details & history
Last TLE update: 19 hours ago

TLE from 19 hours ago
0 FIREFLY-1
1 62701U 25009CW  26035.24001259  .00002743  00000-0  27105-3 0  9995
2 62701  97.7176 116.0666 0004765  58.2905 301.8778 14.92728933 57488
Epoch: 2026-02-04T05:45Z
TLE epoch observation values (Epoch: 2026-02-04T05:45:37.087Z)
Latitude
-0.00008°
Longitude
-104.74736°
Altitude
590.723 km
Speed
7.566 km/s
True Right ascension
07h 44m 15s
True Declination
0° 00' 00"
Sunlit
Object was in full shadow at epoch
Visualization orbit readout
Latitude
Unknown
Longitude
Unknown
Altitude
Unknown
Speed
Unknown
Apparent Right ascension
Unknown
Apparent Declination
Unknown
Sunlit
N/A
Visualization observer readout
Local Sidereal Time
02:38:08
Azimuth
Unknown
Elevation
Unknown
Doppler factor
Unknown
Orbital elements
Apogee altitude
589.765 km
Perigee altitude
583.128 km
Semi-major axis
6,964.584 km
Eccentricity
0.00048
Inclination
97.7176°
RAAN
116.0666°
Arg. of periapsis
58.2905°
True anomaly
301.83142°
Mean anomaly
301.8778°
Eccentric anomaly
301.85461°
Mean motion
3.73422 °/min
Orbital period
96.41 mins
BSTAR
0.00027105
Loading maneuver chart data...
Computing Atmospheric mass density...
Loading historical data...
Loading historical data...
Loading historical data...
Loading historical data...
Loading historical data...
Loading historical data...
Loading historical data...

Documentation

Showing up to 5 results
|